This is the latest recevied weather packets stored in our database for station/object DG4MJS-10. If no packets are shown the sender has not sent any weather packets the latest 10 day(s).
| Time | Temp. | Humidity | Pressure | Rain* | Wind** | Luminosity | Snow |
|---|---|---|---|---|---|---|---|
| 1777879809 | 15.56° C | 57% | 1014.7 hPa | - | - | - | - |
| 1777878909 | 15.56° C | 57% | 1014.6 hPa | - | - | - | - |
| 1777878009 | 15° C | 57% | 1014.7 hPa | - | - | - | - |
| 1777877109 | 15° C | 57% | 1014.7 hPa | - | - | - | - |
| 1777876209 | 15° C | 58% | 1014.8 hPa | - | - | - | - |
| 1777875309 | 14.44° C | 55% | 1014.8 hPa | - | - | - | - |
| 1777874408 | 14.44° C | 57% | 1014.8 hPa | - | - | - | - |
| 1777873508 | 14.44° C | 59% | 1014.6 hPa | - | - | - | - |
| 1777872608 | 13.89° C | 59% | 1014.7 hPa | - | - | - | - |
| 1777871708 | 13.89° C | 59% | 1014.9 hPa | - | - | - | - |
| 1777870808 | 13.33° C | 59% | 1014.8 hPa | - | - | - | - |
| 1777869908 | 13.33° C | 58% | 1014.9 hPa | - | - | - | - |
| 1777869007 | 13.33° C | 58% | 1014.8 hPa | - | - | - | - |
| 1777868108 | 13.33° C | 57% | 1014.8 hPa | - | - | - | - |
| 1777867208 | 13.89° C | 57% | 1014.7 hPa | - | - | - | - |
| 1777866308 | 13.89° C | 57% | 1014.9 hPa | - | - | - | - |
| 1777865408 | 13.89° C | 55% | 1014.7 hPa | - | - | - | - |
| 1777864508 | 13.89° C | 56% | 1014.9 hPa | - | - | - | - |
| 1777863608 | 13.89° C | 56% | 1014.9 hPa | - | - | - | - |
| 1777862708 | 13.89° C | 55% | 1015 hPa | - | - | - | - |
| 1777861808 | 13.89° C | 56% | 1015 hPa | - | - | - | - |
| 1777860908 | 13.89° C | 56% | 1015 hPa | - | - | - | - |
| 1777860008 | 13.89° C | 55% | 1015 hPa | - | - | - | - |
| 1777859108 | 13.89° C | 55% | 1014.9 hPa | - | - | - | - |
| 1777858208 | 13.89° C | 55% | 1014.9 hPa | - | - | - | - |
* Rain since midnight (hover to see other rain measurements)
** Current wind speed in m/s (hover to see current wind gust speed)